Location: Unspecified
(0.0000°N, 0.0000°E)
Time: 05:09:51
(UTC+00:00)

UNISAT 5 - Visible Passes

Search period start: 08 June 2023 00:00
Search period end: 18 June 2023 00:00
Orbit: 575 x 615 km, 97.5° (Epoch: 07 June)

Date Brightness Start Highest point End Pass type
(mag) Time Alt. Az. Time Alt. Az. Time Alt. Az.
08 Jun ? 03:57:37 10° NNE 04:01:30 50° E 04:01:30 50° E visible
09 Jun ? 04:07:01 10° NNE 04:11:05 72° ESE 04:11:06 72° ESE visible
10 Jun ? 04:16:31 10° N 04:20:34 80° WNW 04:20:41 79° WSW visible
11 Jun ? 04:26:05 10° N 04:30:05 55° W 04:30:16 54° W visible
12 Jun ? 04:35:46 10° N 04:39:34 39° W 04:39:51 38° W visible
13 Jun ? 04:45:33 10° NNW 04:49:02 28° WNW 04:49:26 27° W visible
14 Jun ? 03:21:03 10° ENE 03:22:22 13° E 03:22:22 13° E visible
14 Jun ? 04:55:29 10° NNW 04:58:31 20° WNW 04:59:00 20° W visible
15 Jun ? 03:29:42 10° NE 03:31:56 18° E 03:31:56 18° E visible
15 Jun ? 05:05:41 10° NW 05:07:59 15° WNW 05:08:35 14° W visible
16 Jun ? 03:38:40 10° NE 03:41:29 25° E 03:41:29 25° E visible
16 Jun ? 05:16:40 10° WNW 05:17:27 10° WNW 05:18:08 10° W visible
17 Jun ? 03:47:47 10° NE 03:51:03 35° E 03:51:03 35° E visible
